Weather History for PAEN - June, 2014

Change the Weather History Date:

Wednesday, June 4, 2014

  Actual Average (WUND) Record (WUND)
Temperature  
Mean Temperature 54 °F -  
Max Temperature 69 °F - - (-1)
Min Temperature 43 °F - - (-1)
Degree Days  
Heating Degree Days 10    
Growing Degree Days 4 (Base 50)    
Moisture  
Dew Point 37 °F    
Average Humidity 55    
Maximum Humidity 77    
Minimum Humidity 27    
Precipitation  
Precipitation 0.00 in - - ()
Sea Level Pressure  
Sea Level Pressure 30.15 in    
Wind  
Wind Speed 8 mph (SSW)    
Max Wind Speed 16 mph    
Max Gust Speed -    
Visibility 10 miles    
Events      
Averages and records for this station are not official NWS values.
T = Trace of Precipitation, MM = Missing Value Source: NWS Daily Summary

Daily Weather History Graph

Daily Weather History Graph

Search for Another Location

Airport or City:

Trip Planner

Search our weather history database for the weather conditions in past years. The results will help you decide how hot, cold, wet, or windy it might be!

Date:

Astronomy

Jun. 04, 2014 Rise Set
Actual Time 4:43 AM AKDT 11:24 PM AKDT
Civil Twilight 3:05 AM AKDT 1:04 AM AKDT
Nautical Twilight Sun does not set Sun does not set
Astronomical Twilight Sun does not set Sun does not set
Moon 12:40 PM AKDT (6/4) 2:05 AM AKDT (6/4)
Length of Visible Light 21h 58m
Length of Day
18h 40m
Waxing Crescent, 40% of the Moon is Illuminated
Jun 4
Waxing Crescent
Jun 5
First Quarter
Jun 12
Full
Jun 19
Last Quarter
Jun 27
New

Hourly Weather History & Observations

Time (AKDT) Temp. Dew Point Humidity Pressure Visibility Wind Dir Wind Speed Gust Speed Precip Events Conditions
12:53 AM 51.1 °F 36.0 °F 56% 30.17 in 10.0 mi South 9.2 mph - N/A   Clear
1:53 AM 50.0 °F 35.1 °F 57% 30.17 in 10.0 mi South 8.1 mph - N/A   Clear
2:53 AM 48.0 °F 35.1 °F 61% 30.17 in 10.0 mi South 5.8 mph - N/A   Clear
3:53 AM 46.9 °F 35.1 °F 63% 30.16 in 10.0 mi South 5.8 mph - N/A   Clear
4:53 AM 45.0 °F 35.1 °F 68% 30.16 in 10.0 mi Calm Calm - N/A   Clear
5:53 AM 43.0 °F 35.1 °F 74% 30.16 in 10.0 mi Calm Calm - N/A   Clear
6:53 AM 48.9 °F 36.0 °F 61% 30.16 in 10.0 mi Calm Calm - N/A   Clear
7:53 AM 54.0 °F 35.1 °F 49% 30.17 in 10.0 mi South 4.6 mph - N/A   Clear
8:53 AM 55.0 °F 34.0 °F 45% 30.17 in 10.0 mi SW 6.9 mph - N/A   Clear
9:53 AM 55.9 °F 36.0 °F 47% 30.17 in 10.0 mi SSW 6.9 mph - N/A   Clear
10:53 AM 57.0 °F 36.0 °F 45% 30.17 in 10.0 mi SW 5.8 mph - N/A   Clear
11:53 AM 57.9 °F 37.9 °F 47% 30.16 in 10.0 mi Variable 6.9 mph - N/A   Clear
12:53 PM 60.1 °F 37.9 °F 44% 30.14 in 10.0 mi SSW 6.9 mph - N/A   Clear
1:53 PM 62.1 °F 36.0 °F 38% 30.14 in 10.0 mi SW 5.8 mph - N/A   Clear
2:53 PM 66.9 °F 34.0 °F 30% 30.13 in 10.0 mi West 6.9 mph - N/A   Clear
3:53 PM 66.9 °F 32.0 °F 27% 30.11 in 10.0 mi West 10.4 mph - N/A   Clear
4:53 PM 55.9 °F 42.1 °F 60% 30.12 in 10.0 mi SSW 10.4 mph - N/A   Clear
5:53 PM 57.9 °F 39.0 °F 49% 30.12 in 10.0 mi SSW 10.4 mph - N/A   Clear
6:53 PM 57.0 °F 39.0 °F 51% 30.12 in 10.0 mi SSW 13.8 mph - N/A   Clear
7:53 PM 54.0 °F 39.0 °F 57% 30.12 in 10.0 mi SSW 15.0 mph - N/A   Clear
8:53 PM 53.1 °F 39.9 °F 61% 30.12 in 10.0 mi SSW 13.8 mph - N/A   Clear
9:53 PM 50.0 °F 42.1 °F 74% 30.13 in 10.0 mi South 16.1 mph - N/A   Clear
10:53 PM 48.9 °F 39.9 °F 71% 30.13 in 10.0 mi SSW 16.1 mph - N/A   Clear
11:53 PM 48.0 °F 41.0 °F 77% 30.14 in 10.0 mi SSW 16.1 mph - N/A   Clear